TimeCDT,TemperatureF,Dew PointF,Humidity,Sea Level PressureIn,VisibilityMPH,Wind Direction,Wind SpeedMPH,Gust SpeedMPH,PrecipitationIn,Events,Conditions,WindDirDegrees,DateUTC
12:53 AM,57.0,37.9,49,29.95,5.0,NNE,34.5,43.7,N/A,,Haze,30,2013-03-31 05:53:00
1:53 AM,51.1,43.0,74,29.99,10.0,NE,31.1,43.7,0.00,,Overcast,40,2013-03-31 06:53:00
2:53 AM,48.9,43.0,80,30.00,10.0,NNE,25.3,35.7,0.00,,Overcast,30,2013-03-31 07:53:00
3:53 AM,48.0,42.1,80,29.99,10.0,NNE,21.9,-,N/A,,Mostly Cloudy,30,2013-03-31 08:53:00
4:53 AM,48.9,42.1,77,29.99,10.0,NNE,13.8,-,N/A,,Overcast,20,2013-03-31 09:53:00
5:53 AM,48.0,42.1,80,29.99,10.0,North,15.0,-,N/A,,Mostly Cloudy,10,2013-03-31 10:53:00
6:53 AM,48.0,42.1,80,30.01,10.0,North,13.8,-,N/A,,Mostly Cloudy,10,2013-03-31 11:53:00
7:53 AM,46.9,41.0,80,30.04,10.0,North,12.7,-,N/A,,Overcast,10,2013-03-31 12:53:00
8:53 AM,48.0,41.0,77,30.08,10.0,North,12.7,-,N/A,,Overcast,10,2013-03-31 13:53:00
9:53 AM,52.0,37.9,59,30.08,10.0,NNE,17.3,-,N/A,,Overcast,20,2013-03-31 14:53:00
10:53 AM,55.9,32.0,40,30.07,10.0,ENE,13.8,-,N/A,,Clear,60,2013-03-31 15:53:00
11:53 AM,57.0,26.1,30,30.06,10.0,ENE,9.2,-,N/A,,Clear,60,2013-03-31 16:53:00
12:53 PM,59.0,26.1,28,30.06,10.0,Calm,Calm,-,N/A,,Clear,0,2013-03-31 17:53:00
1:53 PM,61.0,25.0,25,30.04,10.0,Variable,5.8,-,N/A,,Clear,0,2013-03-31 18:53:00
2:53 PM,64.0,26.1,24,30.01,10.0,SSE,6.9,-,N/A,,Clear,160,2013-03-31 19:53:00
3:53 PM,66.0,27.0,23,29.97,10.0,SE,8.1,16.1,N/A,,Clear,140,2013-03-31 20:53:00
4:53 PM,66.9,27.0,22,29.95,10.0,SW,5.8,16.1,N/A,,Clear,230,2013-03-31 21:53:00
5:53 PM,66.9,27.0,22,29.93,10.0,South,6.9,-,N/A,,Clear,190,2013-03-31 22:53:00
6:53 PM,66.9,27.0,22,29.91,10.0,SSW,10.4,-,N/A,,Clear,210,2013-03-31 23:53:00
7:53 PM,64.0,28.0,26,29.91,10.0,South,11.5,-,N/A,,Clear,190,2013-04-01 00:53:00
8:53 PM,55.9,28.9,36,29.92,10.0,SSE,9.2,-,N/A,,Clear,160,2013-04-01 01:53:00
9:53 PM,55.9,32.0,40,29.92,10.0,SSE,11.5,-,N/A,,Clear,150,2013-04-01 02:53:00
10:53 PM,52.0,32.0,47,29.92,10.0,SSE,8.1,-,N/A,,Clear,160,2013-04-01 03:53:00
11:53 PM,50.0,30.0,46,29.92,10.0,South,10.4,-,N/A,,Clear,180,2013-04-01 04:53:00